Waarnemingen

Advertentie
Mijn weer
Horn, Zweden (2557): temperatuur & dauwpunt: 17.10.2018 22:00:00 - 23.10.2018 22:00:00 (CEST)Horn, Zweden (2557): windsnelheid & windstoten: 17.10.2018 22:00:00 - 23.10.2018 22:00:00 (CEST)Horn, Zweden (2557): windrichting: 17.10.2018 22:00:00 - 23.10.2018 22:00:00 (CEST)Horn, Zweden (2557): luchtdruk: 17.10.2018 22:00:00 - 23.10.2018 22:00:00 (CEST)Horn, Zweden (2557): zicht: 17.10.2018 22:00:00 - 23.10.2018 22:00:00 (CEST)Horn, Zweden (2557): neerslag: 17.10.2018 22:00:00 - 23.10.2018 22:00:00 (CEST)
Datum & Tijd tt [°C] td [°C] ff [km/u] ff [kn] fx [km/u] fx [kn] dd ppp [hPa] vv [km] rr [mm]
23.10.2018 22:00:00 6,6 -0,6 19 10 34 19 NW 995,0 50 0,0
23.10.2018 21:00:00 6,1 -0,6 12 6 33 18 NW 994,2 50 0,0
23.10.2018 20:00:00 6,4 -0,1 15 8 34 19 NW 993,5 50 0,0
23.10.2018 19:00:00 6,6 0,3 12 7 40 21 NW 992,8 50 0,0
23.10.2018 18:00:00 8,1 0,8 19 10 47 25 NW 992,2 50 0,0
23.10.2018 17:00:00 9,1 1,5 25 13 52 28 WNW 991,5 50 0,0
23.10.2018 16:00:00 9,8 0,4 26 14 56 31 NW 990,8 49 0,0
23.10.2018 15:00:00 10,4 1,0 27 14 56 31 NW 990,5 44 0,0
23.10.2018 14:00:00 10,7 1,8 30 16 54 29 NW 990,3 47 0,0
23.10.2018 13:00:00 10,4 2,7 31 17 50 27 WNW 990,3 45 0,0
23.10.2018 12:00:00 10,3 4,4 22 12 45 24 WNW 990,0 38 0,0
23.10.2018 11:00:00 10,2 5,2 24 13 45 24 WNW 990,0 42 0,0
23.10.2018 10:00:00 9,9 5,9 28 15 44 24 W 990,3 38 0,0
23.10.2018 09:00:00 9,5 6,2 22 12 33 18 W 990,8 27 0,0
23.10.2018 08:00:00 9,1 6,5 16 9 31 17 W 991,0 31 0,0
23.10.2018 07:00:00 8,0 6,1 14 8 35 19 ZW 991,9 19 1,4
23.10.2018 06:00:00 7,3 5,6 18 10 39 21 ZZW 993,7 19 1,1
23.10.2018 05:00:00 7,0 4,5 21 11 40 22 ZZW 996,9 27 0,1
23.10.2018 04:00:00 6,5 4,0 21 11 40 22 ZZW 1000,4 35 0,1
23.10.2018 03:00:00 6,6 3,6 24 13 35 19 ZZW 1003,6 19 0,0
23.10.2018 02:00:00 7,1 3,0 19 10 32 18 ZW 1006,5 16 -
23.10.2018 01:00:00 6,7 2,4 13 7 26 14 ZZW 1008,9 18 -
23.10.2018 00:00:00 6,7 2,2 14 8 26 14 ZW 1011,1 19 -
22.10.2018 23:00:00 5,6 1,5 11 6 31 17 ZW 1012,6 18 -
22.10.2018 22:00:00 6,0 1,5 13 7 31 17 WZW 1014,3 23 -
22.10.2018 21:00:00 6,3 1,2 16 9 31 17 WZW 1014,9 26 -
22.10.2018 20:00:00 7,3 0,9 16 9 31 17 W 1015,6 36 -
22.10.2018 19:00:00 7,5 0,0 14 8 35 19 W 1016,2 42 -
22.10.2018 18:00:00 8,2 -0,3 13 7 37 20 WZW 1016,6 47 -
22.10.2018 17:00:00 9,4 -0,8 15 8 56 30 W 1016,7 41 -
22.10.2018 16:00:00 10,7 -1,1 21 11 56 30 W 1016,6 44 -
22.10.2018 15:00:00 10,9 -0,6 30 16 49 26 W 1016,5 36 -
22.10.2018 14:00:00 11,2 0,0 25 14 50 27 W 1016,6 37 -
22.10.2018 13:00:00 10,9 0,0 29 15 50 27 W 1016,4 30 -
22.10.2018 12:00:00 10,5 0,8 29 16 50 27 W 1016,3 35 -
22.10.2018 11:00:00 10,0 2,1 29 16 48 26 W 1016,2 31 -
22.10.2018 10:00:00 9,6 2,9 23 12 40 22 W 1015,9 29 0,0
22.10.2018 09:00:00 9,3 3,3 19 10 40 22 W 1015,7 45 0,0
22.10.2018 08:00:00 8,7 3,3 15 8 35 19 W 1015,3 50 0,0
22.10.2018 07:00:00 9,8 4,6 18 10 35 19 W 1015,0 48 0,0
22.10.2018 06:00:00 9,7 4,9 13 7 41 22 W 1014,6 50 0,0
22.10.2018 05:00:00 11,1 5,6 21 12 49 26 W 1014,6 50 0,0
22.10.2018 04:00:00 12,7 6,7 25 13 49 26 W 1014,0 50 0,0
22.10.2018 03:00:00 14,0 9,2 22 12 47 25 W 1013,4 50 0,0
22.10.2018 02:00:00 14,0 10,2 21 12 39 21 WZW 1013,3 50 0,0
22.10.2018 01:00:00 13,6 10,2 23 12 42 23 ZW 1013,6 50 0,0
22.10.2018 00:00:00 13,3 10,3 21 11 43 23 ZW 1014,1 50 0,0
21.10.2018 23:00:00 13,3 10,1 23 12 43 23 ZW 1014,8 50 0,0
21.10.2018 22:00:00 12,8 10,0 21 11 36 19 ZW 1015,6 48 0,0
21.10.2018 21:00:00 12,6 9,6 19 10 32 17 ZZW 1016,1 50 0,0
21.10.2018 20:00:00 12,3 9,1 19 10 31 17 ZZW 1017,2 50 0,0
21.10.2018 19:00:00 12,3 9,1 16 9 31 17 ZW 1017,6 50 0,0
21.10.2018 18:00:00 12,4 9,0 18 10 32 18 ZW 1018,2 49 0,0
21.10.2018 17:00:00 12,1 9,1 17 9 33 18 ZZW 1018,4 46 0,0
21.10.2018 16:00:00 12,1 8,9 20 11 33 18 ZW 1019,2 36 0,0
21.10.2018 15:00:00 12,2 8,5 15 8 28 15 ZW 1019,7 38 0,0
21.10.2018 14:00:00 12,0 8,1 16 9 29 16 ZW 1020,3 43 0,0
21.10.2018 13:00:00 11,8 7,5 18 10 29 16 ZW 1021,0 34 0,0
21.10.2018 12:00:00 11,5 6,6 14 8 26 14 ZZW 1021,6 28 0,0
21.10.2018 11:00:00 9,2 5,9 13 7 23 13 ZZW 1022,0 42 0,0
21.10.2018 10:00:00 7,4 5,0 10 5 17 9 ZZW 1022,5 39 0,0
21.10.2018 09:00:00 5,6 4,1 6 4 16 9 ZZW 1023,1 18 0,0
21.10.2018 08:00:00 4,4 3,1 10 5 16 8 ZW 1023,1 8 0,0
21.10.2018 07:00:00 3,5 2,0 5 3 11 6 ZZW 1023,5 8 0,0
21.10.2018 06:00:00 -2,0 -4,0 3 2 5 3 OZO 1024,1 19 0,0
21.10.2018 05:00:00 -3,3 -5,6 0 0 3 1 N 1024,1 5 0,0
21.10.2018 04:00:00 - - - - 3 2 - - - -
21.10.2018 03:00:00 -3,1 -5,7 0 0 3 2 N 1024,7 2,7 0,0
21.10.2018 02:00:00 -2,6 -5,2 0 0 2 1 N 1024,6 2,0 0,0
21.10.2018 01:00:00 -2,1 -4,9 0 0 2 1 N 1024,6 29 0,0
21.10.2018 00:00:00 -2,0 -5,2 0 0 3 1 N 1024,6 2,3 0,0
20.10.2018 23:00:00 -1,4 -4,1 0 0 4 2 N 1024,7 6 0,0
20.10.2018 22:00:00 -0,9 -3,4 2 1 4 2 ZO 1024,7 8 0,0
20.10.2018 21:00:00 0,5 -1,7 0 0 5 3 N 1024,4 1,4 0,0
20.10.2018 20:00:00 0,5 -2,7 0 0 5 3 N 1024,1 10 0,0
20.10.2018 19:00:00 1,3 -1,6 3 1 9 5 ZZO 1023,8 29 0,0
20.10.2018 18:00:00 4,6 0,7 0 0 11 6 N 1023,3 41 0,0
20.10.2018 17:00:00 9,6 3,3 6 3 14 8 W 1022,6 48 0,0
20.10.2018 16:00:00 11,6 4,3 5 3 14 8 WNW 1022,2 45 0,0
20.10.2018 15:00:00 11,1 5,0 6 3 13 7 WNW 1022,2 47 0,0
20.10.2018 14:00:00 11,2 5,1 6 3 18 10 NW 1022,3 45 0,0
20.10.2018 13:00:00 11,5 5,6 10 5 18 10 WZW 1022,1 41 0,0
20.10.2018 12:00:00 10,5 5,5 7 4 18 10 W 1022,2 37 0,0
20.10.2018 11:00:00 8,9 5,5 11 6 18 10 W 1022,0 40 0,0
20.10.2018 10:00:00 7,7 4,6 5 3 9 5 ZO 1021,7 35 0,0
20.10.2018 09:00:00 4,6 1,8 3 2 6 3 ZZO 1021,6 24 0,0
20.10.2018 08:00:00 3,3 0,0 2 1 5 3 ZZO 1021,5 33 0,0
20.10.2018 07:00:00 2,3 -0,6 3 1 5 3 ZZO 1021,3 44 0,0
20.10.2018 06:00:00 1,0 -1,4 0 0 4 2 N 1021,1 11 0,0
20.10.2018 05:00:00 1,2 -1,2 0 0 5 3 N 1021,3 30 0,0
20.10.2018 04:00:00 1,5 -0,9 0 0 5 3 N 1021,5 46 0,0
20.10.2018 03:00:00 1,8 -0,8 0 0 4 2 N 1021,6 47 0,0
20.10.2018 02:00:00 0,3 -2,4 0 0 3 2 N 1021,9 50 0,0
20.10.2018 01:00:00 -0,6 -3,3 0 0 3 1 N 1022,2 50 0,0
20.10.2018 00:00:00 -1,1 -4,1 0 0 3 2 N 1022,6 43 0,0
19.10.2018 23:00:00 -1,6 -4,4 0 0 3 2 N 1022,6 13 0,0
19.10.2018 22:00:00 -1,5 -4,2 0 0 3 1 N 1023,0 47 0,0
19.10.2018 21:00:00 -1,2 -4,7 0 0 2 1 N 1022,9 0,6 0,0
19.10.2018 20:00:00 0,1 -3,1 0 0 4 2 N 1022,8 6 0,0
19.10.2018 19:00:00 1,5 -1,6 0 0 4 2 N 1022,8 50 0,0
19.10.2018 18:00:00 3,5 -0,9 0 0 8 4 N 1022,7 50 0,0
19.10.2018 17:00:00 10,2 1,6 0 0 12 7 N 1022,4 44 0,0
19.10.2018 16:00:00 12,1 1,4 5 3 12 7 W 1022,6 50 0,0
19.10.2018 15:00:00 12,6 1,3 5 3 12 6 W 1022,8 47 0,0
19.10.2018 14:00:00 12,5 1,8 5 3 11 6 WZW 1023,3 46 0,0
19.10.2018 13:00:00 11,6 3,1 4 2 11 6 NO 1023,7 41 0,0
19.10.2018 12:00:00 8,8 3,0 2 1 6 3 ZO 1024,1 37 0,0
19.10.2018 11:00:00 4,7 1,9 3 2 6 3 Z 1024,6 35 0,0
19.10.2018 10:00:00 0,6 -2,5 0 0 2 1 N 1024,7 24 0,0
19.10.2018 09:00:00 -1,5 -3,8 0 0 2 1 N 1024,6 6 0,0
19.10.2018 08:00:00 -3,1 -6,2 0 0 2 1 N 1024,4 0,2 0,0
19.10.2018 07:00:00 -4,7 -7,3 0 0 3 2 N 1024,2 39 0,0
19.10.2018 06:00:00 - - - - 3 2 - - - -
19.10.2018 05:00:00 -4,3 -7,2 0 0 3 2 N 1023,9 50 0,0
19.10.2018 04:00:00 -3,1 -5,9 0 0 4 2 N 1023,7 9 0,0
19.10.2018 03:00:00 -3,0 -6,1 0 0 4 2 N 1023,5 36 0,0
19.10.2018 02:00:00 -2,6 -5,7 0 0 2 1 N 1023,7 2,1 0,0
19.10.2018 01:00:00 -2,1 -4,9 0 0 3 2 N 1023,8 1,1 0,0
19.10.2018 00:00:00 -1,7 -4,0 0 0 5 3 N 1023,6 8 0,0
18.10.2018 23:00:00 -1,6 -4,3 0 0 5 3 N 1023,3 50 0,0
18.10.2018 22:00:00 -0,4 -2,8 0 0 6 3 N 1023,1 50 0,0
18.10.2018 21:00:00 -0,1 -3,3 0 0 6 3 N 1022,5 50 0,0
18.10.2018 20:00:00 2,1 -1,2 0 0 4 2 N 1021,7 50 0,0
18.10.2018 19:00:00 2,8 -1,2 0 0 17 9 N 1021,3 50 0,0
18.10.2018 18:00:00 6,3 -0,7 2 1 30 16 WNW 1020,8 50 0,0
18.10.2018 17:00:00 11,6 0,1 11 6 30 16 NW 1019,8 50 0,0
18.10.2018 16:00:00 12,9 2,2 14 7 29 16 WNW 1019,3 50 0,0
18.10.2018 15:00:00 13,5 2,7 18 10 31 17 WNW 1018,8 39 0,0
18.10.2018 14:00:00 14,0 2,6 15 8 31 17 NW 1018,3 45 0,0
18.10.2018 13:00:00 13,8 4,7 18 10 29 16 WNW 1018,4 38 0,0
18.10.2018 12:00:00 13,2 7,0 16 9 26 14 W 1018,4 39 0,0
18.10.2018 11:00:00 12,6 7,5 12 6 19 11 WNW 1018,0 38 0,0
18.10.2018 10:00:00 - - - - 11 6 - - - -
18.10.2018 09:00:00 12,1 8,4 6 3 11 6 W 1017,3 18 0,0
18.10.2018 08:00:00 11,4 8,6 3 2 9 5 WZW 1016,9 2,8 0,0
18.10.2018 07:00:00 10,9 7,8 4 2 9 5 ZW 1016,6 2,7 0,0
18.10.2018 06:00:00 11,4 9,5 6 4 8 5 ZZW 1016,6 2,8 0,0
18.10.2018 05:00:00 11,5 8,5 4 2 8 5 Z 1016,8 2,0 0,0
18.10.2018 04:00:00 12,2 9,6 4 2 6 4 Z 1016,9 3,1 0,0
18.10.2018 03:00:00 10,2 7,4 3 1 5 3 W 1017,3 4,7 0,0
18.10.2018 02:00:00 9,9 7,1 0 0 6 3 N 1017,5 6 0,0
18.10.2018 01:00:00 10,5 7,9 3 2 6 3 ZZW 1017,7 6 0,0
18.10.2018 00:00:00 9,9 7,3 3 2 6 3 ZZO 1017,9 4,9 0,0
17.10.2018 23:00:00 11,2 7,7 0 0 6 4 N 1018,1 10 0,0
17.10.2018 22:00:00 - - - - 6 4 - - - -

tt = temperatuur
td = dauwpunt
ff = windsnelheid
fx = windstoten
dd = windrichting
ppp = luchtdruk
vv = zicht
rr = neerslag

Weerstations in de omgeving